www.pogodaiklimat.ru

Погода и климат >> Архив погоды >> Индия >> Западная Бенгалия >> Каннинг


ПОГОДА в Каннинге

  • Прогноз погоды в Каннинге
  • Монитор погоды в Каннинге

АРХИВ ПОГОДЫ в Каннинге

Время (UTC), дата Ветер
(напр.,м/с)
 
Видим.   Явления Облачность Т
(С)
Тd
(С)
f
(%)
Тe
(С)
Тes
(С)
Комфортность P
(гПа)
Po
(гПа)
Тmin
(С)
Tmax
(С)
R
(мм)
R24
(мм)
S
(см)
06 12.09 штиль 0 4000 м слаб. дождь 10/8 300 м
[Sc diur, vesp As op]
+27.0 +27.0 100 +42 +43 опасность
перегрева
1005.3 1004.8 8
09 12.09 штиль 0 4000 м слаб. дождь 10/8 300 м
[Sc diur, vesp As op]
+28.0 +28.0 100 +46 +47 опасность
перегрева
1003.3 1002.8 15
12 12.09 штиль 0 4000 м {дождь} 10/8 300 м
[Sc diur, vesp As op]
+28.6 +27.8 95 +47 +47 опасность
перегрева
1002.8 1002.3 +29.0 16
03 13.09 штиль 0 4000 м 8/5 300 м
[Sc diur, vesp As op]
+30.0 +27.8 88 +49 +52 опасность
перегрева
1008.1 1007.6 +25.4 20
06 13.09 штиль 0 4000 м 8/5 300 м
[Sc diur, vesp As op]
+31.0 +27.4 81 +49 +56 опасность
перегрева
1007.9 1007.4
09 13.09 ЮЗ 1 4000 м {дождь} 9/6 300 м
[Sc diur, vesp As op]
+31.0 +28.3 86 +52 +54 опасность
перегрева
1005.9 1005.4 1
12 13.09 ЮЗ 1 4000 м {дождь} 9/6 300 м
[Sc diur, vesp As op]
+30.0 +28.6 92 +51 +51 опасность
перегрева
1005.3 1004.8 +32.4 1
03 14.09 штиль 0 4000 м 6/6 300 м
[Sc diur, vesp]
+30.6 +27.6 84 +49 +55 опасность
перегрева
1008.8 1008.3 +26.0 1
06 14.09 штиль 0 4000 м 6/6 300 м
[Sc diur, vesp]
+31.6 +28.1 82 +52 +63 опасность
перегрева
1008.6 1008.1
09 14.09 штиль 0 4000 м 6/6 300 м
[Sc diur, vesp]
+33.6 +27.3 70 +53 +58 опасность
перегрева
1006.7 1006.3
12 14.09 штиль 0 4000 м 8/5 300 м
[Sc diur, vesp As op]
+30.6 +28.6 89 +52 +52 опасность
перегрева
1006.2 1005.7 +34.0
03 15.09 штиль 0 4000 м 6/6 300 м
[Sc diur, vesp]
+30.4 +27.7 86 +50 +55 опасность
перегрева
1007.6 1007.1 +27.4
06 15.09 штиль 0 4000 м 6/6 300 м
[Sc diur, vesp]
+32.0 +27.0 75 +50 +60 опасность
перегрева
1007.4 1006.9
09 15.09 штиль 0 4000 м 8/5 300 м
[Sc diur, vesp As op]
+33.0 +26.6 69 +50 +54 опасность
перегрева
1005.0 1004.6
12 15.09 штиль 0 4000 м 8/5 300 м
[Sc diur, vesp As op]
+31.0 +27.4 81 +49 +49 опасность
перегрева
1004.2 1003.7 +33.6
03 16.09 штиль 0 4000 м 6/6 300 м
[Sc diur, vesp]
+30.0 +27.2 85 +48 +53 опасность
перегрева
1006.5 1006.0 +27.4
06 16.09 штиль 0 4000 м 6/6 300 м
[Sc diur, vesp]
+32.0 +26.4 72 +48 +59 опасность
перегрева
1006.2 1005.7
09 16.09 штиль 0 4000 м 9/6 300 м
[Sc diur, vesp As op]
+32.4 +27.8 77 +53 +55 опасность
перегрева
1003.5 1003.1
12 16.09 штиль 0 4000 м 8/5 300 м
[Sc diur, vesp As op]
+30.0 +28.6 92 +51 +51 опасность
перегрева
1002.7 1002.2 +34.0
03 17.09 штиль 0 4000 м 6/6 300 м
[Sc diur, vesp]
+31.4 +27.3 79 +50 +55 опасность
перегрева
1008.0 1007.5 +27.6
06 17.09 штиль 0 4000 м 6/6 300 м
[Sc diur, vesp]
+32.4 +26.9 73 +50 +61 опасность
перегрева
1007.7 1007.2
09 17.09 штиль 0 4000 м 6/6 300 м
[Sc diur, vesp]
+34.6 +26.9 64 +52 +58 опасность
перегрева
1005.3 1004.9
12 17.09 штиль 0 4000 м 6/6 300 м
[Sc diur, vesp]
+32.0 +27.9 79 +52 +52 опасность
перегрева
1004.6 1004.2 +35.0
03 18.09 штиль 0 4000 м 6/6 300 м
[Sc diur, vesp]
+31.4 +28.1 83 +52 +57 опасность
перегрева
1009.9 1009.4 +28.0
06 18.09 штиль 0 4000 м 6/6 300 м
[Sc diur, vesp]
+33.0 +27.5 73 +52 +63 опасность
перегрева
1009.5 1009.0
09 18.09 СВ 1 4000 м 9/6 300 м
[Sc diur, vesp As op]
+32.0 +27.9 79 +52 +54 опасность
перегрева
1007.9 1007.4
12 18.09 штиль 0 4000 м 9/6 300 м
[Sc diur, vesp As op]
+30.0 +28.6 92 +51 +51 опасность
перегрева
1006.9 1006.4 +34.4
03 19.09 штиль 0 4000 м 6/6 300 м
[Sc diur, vesp]
+31.0 +26.8 78 +48 +53 опасность
перегрева
1011.1 1010.6 +27.6 2

 

Местоположение метеостанции Каннинг (Западная Бенгалия, Индия): широта 22.25 долгота 88.67 высота над уровнем моря 4 м.

В архиве по умолчанию представлена погода в Каннинге за последнюю неделю. Архивные данные за месяц целиком и за предыдущие месяцы, начиная с января 2011 года, Вы можете получить, выбрав интересующий диапазон дат из раскрывающегося списка и нажав кнопку "Ввод!".


*Определитесь, кто Вы:
робот инопланетянин человек

Внимание! Время в таблицах - всемирное. Для получения местного времени необходимо прибавить поправку, которая равна 5.5 ч.

Смотрите также архив погоды в соседних городах и на ближайших метеорологических станциях:

Погода в Колкате (Западная Бенгалия, Индия) (47 км)
Погода в Бейсирхэте (Западная Бенгалия, Индия) (49 км)
Погода в Даймонд Харбор (Западная Бенгалия, Индия) (49 км)
Погода в Колкате (Западная Бенгалия, Индия) (50 км)
Погода в Саткхире (Бангладеш) (67 км)
Погода в Халдии (Западная Бенгалия, Индия) (69 км)
Погода в Улуберии (Западная Бенгалия, Индия) (79 км)
Погода в Багати (Западная Бенгалия, Индия) (87 км)
Погода в Монгле (Бангладеш) (94 км)
Погода в Кхулне (Бангладеш) (106 км)

Пояснения к столбцам:

Ветер - указаны скорость ветра в м/с - средняя за 10 мин, порывы в срок и между сроками (в фигурных скобках) и направление, откуда дует ветер: С - северный, СВ - северо-восточный, В - восточный, ЮВ - юго-восточный, Ю - южный, ЮЗ - юго-западный, З - западный, СЗ - северо-западный.
Видимость - горизонтальная дальность видимости в метрах или километрах. При видимости от 1 до 10 км при отсутствии осадков обычно наблюдается дымка, при ухудшении видимости до 1 км и менее - туман. В сухую погоду видимость может ухудшаться дымом, пылью или мглою.
Явления - указаны атмосферные явления, наблюдавшиеся в срок или в последний час перед сроком; фигурными скобками обозначены явления, наблюдавшиеся между сроками (за 1-3 часа до срока); квадратными скобками обозначены град или гололедные отложения с указанием их диаметра в мм.
Облачность - указаны через наклонную черту общая и нижняя облачность в баллах и высота нижней границы облаков в метрах; квадратными скобками обозначены формы облаков: Ci - перистые, Cs - перисто-слоистые, Cc - перисто-кучевые, Ac - высококучевые, As - высокослоистые, Sc - слоисто-кучевые, Ns - слоисто-дождевые, Cu - кучевые, Cb - кучево-дождевые. Подробнее классификацию облаков см. в Атласе облаков (PDF).
T - Температура воздуха - температура, измеренная на высоте 2 м над землей.
Td - Температура точки росы - температура, при понижении до которой содержащийся в воздухе водяной пар достигнет насыщения.
f - Относительная влажность воздуха - влажноcть воздуха, измеренная на высоте 2 м над землей.
Te - Эффективная температура - температура, которую ощущает одетый по сезону человек в тени. Характеристика душности погоды. При расчете учитывается влияние влажности воздуха и скорости ветра на теплоощущения человека.
Tes - Эффективная температура на солнце - температура, которую ощущает человек, с поправкой на солнечный нагрев. Характеристика знойности погоды. Зависит от высоты солнца над горизонтом, облачности и скорости ветра. Ночью, в пасмурную погоду, а также при ветре 12 м/с и более поправка равна нулю.
P - Атмосферное давление - приведенное к уровню моря атмосферное давление.
Po - Атмосферное давление - измеренное на уровне метеостанции атмосферное давление.
Tmin - Минимальная температура - минимум температуры воздуха на высоте 2 м над землей.
Tmax - Максимальная температура - максимум температуры воздуха на высоте 2 м над землей.
R - Количество осадков - Количество выпавших осадков за период времени, мм. При наведении курсора мыши на число - период времени, за который выпало указанное количество осадков.
R24 - Количество осадков - Количество выпавших осадков за 24 часа, мм.
S - Снежный покров - Высота снежного покрова, см. При наведении курсора мыши на число - состояние снежного покрова и степень покрытия местности в баллах.